Theta_e
314 317 318 318 318 318 319 319 320 319 317 317 318 319 319 319 321 323 324 326 327 329 330 328 327 325 322 319 320 321 323 323 323 322 322 323 321 318 315 315 314 314 311 315
317 317 316 317 319 318 319 318 319 318 318 317 317 317 318 320 321 322 323 325 326 328 330 327 326 325 323 319 320 322 322 323 323 322 321 323 321 317 319 316 311 308 309 310
317 317 316 317 318 318 319 319 319 318 318 317 318 318 317 318 321 322 323 324 324 327 329 327 325 324 323 319 320 323 321 323 323 322 321 321 322 320 320 315 310 308 310 315
315 315 316 317 317 318 318 318 318 318 318 319 318 319 319 320 321 322 321 324 324 325 328 328 325 324 323 321 318 320 321 322 321 322 321 321 321 322 316 315 311 314 316 317
315 315 315 316 317 316 318 317 317 318 319 319 319 318 320 320 322 322 322 322 324 324 326 327 326 325 323 322 318 320 321 322 322 321 321 321 321 321 316 317 314 316 316 316
315 315 315 315 316 317 317 317 317 318 319 321 320 319 321 321 322 322 321 321 323 325 325 327 326 325 324 323 319 320 322 322 321 323 322 322 321 320 319 319 316 315 315 315
313 314 315 315 315 315 316 318 322 323 323 322 320 320 321 322 322 322 322 321 322 324 325 327 326 325 324 323 321 318 321 321 321 322 322 321 321 321 320 319 319 316 315 315
311 314 314 315 316 316 317 320 322 322 325 324 321 322 322 322 322 322 322 321 322 323 325 326 326 326 325 323 321 316 321 322 320 322 320 321 321 321 321 320 320 318 315 316
310 311 314 314 315 317 318 319 318 320 321 322 322 322 322 321 321 322 322 322 322 323 325 326 326 326 326 324 323 316 318 322 322 321 321 321 321 320 320 320 320 318 317 316
314 313 312 314 316 317 319 319 321 321 323 324 322 322 322 322 321 322 323 324 322 323 323 325 326 326 326 325 323 321 315 319 322 321 321 321 320 320 320 320 320 319 317 317
312 316 317 315 316 317 318 319 320 320 321 323 324 323 322 321 322 322 323 322 322 323 325 325 325 326 326 326 324 323 319 316 320 321 322 320 320 321 320 320 319 319 319 318
315 315 317 317 316 316 317 318 319 321 321 321 322 323 321 322 323 323 323 322 322 322 324 326 326 326 326 326 325 324 323 321 318 318 321 319 319 320 320 319 319 318 318 318
314 315 314 314 315 316 317 318 318 319 319 321 325 322 320 320 321 321 322 321 321 321 321 325 327 327 326 326 326 325 324 324 322 320 318 319 319 318 318 317 319 320 319 319
311 319 319 316 318 318 320 319 319 321 321 320 320 320 320 319 319 319 319 320 321 321 321 321 325 327 327 326 326 325 325 324 324 323 321 319 316 316 317 317 317 318 318 318
313 314 315 317 317 315 317 317 318 318 320 322 320 319 319 318 319 319 318 319 320 320 320 320 321 325 327 327 327 326 325 324 324 324 323 324 321 318 317 317 317 317 317 318
310 311 312 312 313 313 313 314 316 317 317 318 320 320 319 318 318 318 318 318 318 318 319 320 320 320 324 326 327 326 325 323 324 324 324 324 324 323 321 319 317 318 318 318
308 314 315 314 314 313 315 315 315 316 319 320 320 316 317 317 317 318 318 319 319 319 319 320 320 319 320 322 324 323 322 324 323 323 324 324 324 324 324 322 321 319 319 318
308 311 314 314 316 315 314 314 316 318 316 317 317 316 319 319 318 318 317 318 318 318 318 319 320 319 319 319 321 322 325 322 322 322 322 322 323 323 323 322 322 322 320 319
308 310 313 315 313 312 312 312 314 315 314 318 318 318 319 319 319 319 318 318 317 317 317 316 317 317 317 318 319 322 325 324 323 322 322 322 322 322 322 323 322 321 320 320
308 309 312 314 312 313 313 314 315 314 314 315 317 316 316 317 322 321 317 318 318 318 319 319 317 318 318 317 317 319 323 325 322 321 322 323 323 322 322 322 322 321 322 321
309 310 311 312 314 314 313 312 315 315 315 313 313 312 312 315 316 316 316 317 317 317 318 318 319 319 319 318 318 317 321 323 324 324 324 323 323 323 322 322 323 323 323 323
310 311 312 311 312 313 313 313 314 313 312 313 313 313 315 315 314 315 316 317 317 317 318 317 320 321 319 318 318 321 323 324 324 324 323 323 323 323 324 322 322 323 322 322
311 310 312 312 312 313 313 312 312 313 313 313 313 313 314 315 315 315 317 317 316 316 318 318 318 321 320 319 318 320 320 320 321 322 322 322 322 322 322 322 321 321 319 318
310 310 312 312 311 311 311 311 311 311 311 311 310 310 313 313 315 316 316 316 315 316 316 317 317 319 320 319 319 318 318 319 320 321 320 321 321 321 321 320 318 318 318 317
309 309 309 309 310 310 310 310 309 308 309 309 307 306 306 305 308 308 311 312 311 310 311 313 313 317 319 318 318 317 317 318 320 320 320 320 318 319 319 316 315 312 310 309
308 309 310 309 309 308 309 308 306 307 307 306 304 303 302 301 301 301 302 302 310 303 306 311 311 313 315 317 317 318 316 316 317 318 316 315 315 314 311 310 309 304 303 303
Wind_Speed
24 15 19 26 23 19 15 14 16 8 0 7 14 16 14 15 10 15 13 17 19 19 16 16 15 14 12 11 12 17 15 17 15 16 19 23 35 44 45 41 40 39 42 39
11 20 22 18 18 19 19 17 18 12 7 8 14 17 15 14 13 15 13 16 18 18 19 18 19 17 15 13 14 18 16 15 18 19 22 25 34 43 38 39 41 42 44 41
19 9 20 17 15 18 20 20 17 15 7 11 16 19 20 16 14 12 12 10 15 20 23 21 22 20 16 17 17 20 19 18 20 22 22 30 32 39 37 38 39 40 41 40
15 19 10 19 22 18 21 19 16 17 11 9 3 9 6 8 15 14 16 13 14 19 22 23 23 22 20 18 18 22 23 21 22 25 29 34 36 35 47 41 43 44 40 38
8 13 21 19 18 18 19 14 12 15 14 14 16 8 7 3 12 11 12 16 15 18 24 26 26 22 20 19 21 23 24 26 25 27 31 29 32 34 54 46 43 44 43 39
19 6 10 19 11 17 5 8 7 6 7 10 16 12 11 9 11 7 4 7 9 17 22 24 23 23 22 21 21 23 24 29 28 29 30 33 34 37 43 45 51 48 43 42
18 18 8 8 18 12 15 13 6 7 6 8 2 10 14 8 11 10 9 8 5 14 21 26 29 29 27 27 25 26 28 29 31 28 31 33 32 31 38 42 42 56 46 48
19 11 21 13 14 7 20 15 6 7 8 6 5 7 6 3 3 5 8 12 9 13 20 27 29 29 29 30 29 29 29 29 30 32 32 32 34 33 32 35 41 49 56 52
15 20 13 15 16 15 9 15 17 17 8 6 6 4 7 9 9 5 6 11 11 14 20 24 29 31 29 30 32 31 31 29 30 32 30 31 34 36 35 34 37 46 45 48
4 6 11 22 17 19 15 12 8 9 8 14 9 11 7 4 10 4 4 4 1 7 15 21 26 30 29 28 29 31 32 31 30 31 31 33 33 36 36 37 42 44 46 45
8 4 4 10 14 19 15 13 11 9 14 12 10 6 4 10 7 6 1 4 8 1 9 16 23 26 28 27 29 31 33 33 32 32 33 34 36 38 38 44 43 44 42 41
4 4 6 12 6 12 17 17 17 10 12 9 10 11 3 6 8 4 5 9 4 3 4 12 18 23 28 30 30 33 33 34 35 34 35 37 38 37 42 48 51 52 51 46
7 4 7 8 8 5 10 11 10 12 14 18 11 5 2 9 8 12 11 11 14 7 1 8 15 20 25 29 31 33 36 38 35 34 36 37 41 40 42 45 44 41 41 43
5 3 5 4 4 4 3 2 3 5 7 10 14 15 10 14 15 16 21 22 16 12 11 7 13 19 22 26 29 31 33 37 37 37 37 38 42 44 43 42 41 41 40 40
3 5 6 6 4 4 5 7 7 9 8 8 11 13 12 12 14 18 21 23 24 21 17 14 14 17 20 24 25 28 30 33 36 39 40 44 41 39 39 39 41 42 41 39
6 5 7 9 11 10 12 12 12 13 15 15 15 16 13 17 20 19 21 22 23 25 22 18 18 17 19 22 25 27 29 31 32 36 39 38 38 40 41 40 39 39 42 41
4 3 5 10 5 9 11 16 17 13 8 7 8 9 3 10 12 17 23 21 19 20 23 18 17 18 20 23 25 29 30 28 30 31 32 33 34 36 37 37 37 37 37 35
6 5 1 2 3 8 3 4 9 10 8 8 10 7 8 12 21 23 23 22 22 20 22 20 16 14 18 22 24 23 25 29 31 31 31 32 32 32 30 30 33 33 33 35
15 7 3 4 10 13 14 8 7 7 6 4 5 5 9 14 15 4 17 16 18 18 19 18 14 18 17 17 21 23 26 29 31 34 33 32 32 31 30 30 29 27 28 29
16 13 7 5 6 6 5 9 4 3 5 6 6 10 14 17 7 7 17 18 20 17 17 19 21 21 21 18 16 21 26 29 33 34 34 28 28 28 28 26 25 30 27 26
8 10 13 12 7 4 4 7 4 8 5 13 13 17 18 10 10 22 23 22 21 21 22 20 18 17 18 18 18 18 21 27 26 26 29 29 27 29 29 28 26 25 23 21
10 9 7 9 7 9 3 3 3 10 12 14 16 17 19 20 21 19 19 24 22 20 18 21 17 16 15 14 14 12 13 16 25 31 33 30 28 29 26 24 24 22 23 23
5 6 4 6 6 4 3 7 6 8 10 12 18 23 22 22 22 19 16 16 18 18 16 13 18 17 12 9 8 7 14 15 18 19 22 24 23 22 20 19 21 21 21 20
5 7 5 3 6 6 4 3 8 10 12 13 14 18 19 18 18 15 12 10 12 13 14 13 12 15 12 7 5 5 7 11 13 17 18 19 21 23 22 20 19 17 18 20
3 4 5 10 11 11 9 8 14 16 13 15 15 15 17 16 15 15 11 9 10 12 13 11 9 10 12 8 3 1 4 7 12 15 16 18 18 18 18 18 16 14 14 13
8 7 7 8 7 4 8 13 11 16 17 16 16 16 15 15 13 12 9 10 12 12 9 5 4 3 4 4 2 2 4 6 10 14 17 18 18 17 18 17 15 15 9 7
Wind_Direction
195 203 212 219 221 237 268 264 257 257 158 248 250 257 259 268 248 253 229 222 220 220 216 207 206 206 219 219 200 204 209 209 204 203 181 184 171 169 166 169 169 174 176 181
177 223 224 235 237 232 233 250 254 260 198 250 268 265 254 256 250 252 257 219 223 213 205 205 203 200 216 216 198 198 201 200 196 192 182 174 175 168 174 178 182 184 171 177
212 211 222 225 220 225 232 241 251 258 219 268 266 270 252 244 242 247 242 235 220 212 207 204 203 202 204 208 197 193 196 199 202 194 180 190 175 174 180 180 180 179 176 181
233 235 210 218 228 219 239 233 257 256 255 258 140 286 270 233 251 238 243 224 217 209 207 206 203 197 199 204 199 195 196 199 199 195 190 194 190 190 182 181 180 181 183 184
210 224 224 229 226 222 247 258 240 247 249 258 248 251 257 204 248 248 240 232 217 208 204 204 204 199 198 196 200 194 195 198 202 199 200 195 196 192 185 186 186 189 194 199
246 270 249 229 211 221 224 214 223 230 243 239 241 221 264 254 257 263 258 247 217 203 203 204 202 195 193 192 197 192 193 196 195 199 205 204 208 206 201 195 194 198 201 202
221 238 248 242 218 214 224 206 206 219 211 241 204 201 249 284 262 277 277 268 210 207 198 198 198 197 190 194 192 193 193 196 196 199 205 206 207 208 211 206 205 201 203 211
219 217 223 223 207 190 202 201 230 239 240 254 144 229 232 251 249 260 262 255 263 221 203 201 202 199 196 196 196 199 193 194 197 197 200 204 207 203 201 197 204 206 208 214
203 231 183 206 219 183 186 231 243 262 265 263 250 186 259 224 258 279 273 253 255 225 207 201 201 203 200 197 200 203 196 195 197 197 197 200 202 206 202 203 202 206 212 211
281 223 213 205 211 214 214 185 188 216 250 249 232 232 249 187 201 159 30 50 34 206 205 205 203 203 203 203 202 205 204 200 199 200 200 200 201 202 204 206 206 207 211 211
233 257 131 159 210 206 206 217 232 251 224 250 261 252 146 244 271 200 58 31 34 40 198 197 199 202 203 204 204 206 204 203 204 204 203 202 203 203 203 207 211 211 212 212
355 300 204 187 113 213 215 220 227 233 208 235 265 261 156 303 327 304 277 309 335 7 185 193 193 196 200 204 206 207 207 207 209 207 207 211 209 206 209 212 216 217 219 220
336 226 217 228 225 206 207 204 238 247 261 261 252 247 129 308 318 306 290 302 307 328 296 201 198 198 203 206 208 210 212 213 210 209 212 214 215 214 216 219 219 219 221 223
269 335 306 275 79 48 176 245 248 249 252 252 249 267 268 288 290 292 296 293 286 297 302 250 220 212 207 208 209 211 215 216 215 215 215 218 220 223 225 224 223 223 224 225
331 245 252 277 278 271 259 260 254 247 254 259 276 274 274 267 274 286 290 294 290 286 287 262 234 224 217 212 212 213 215 217 218 218 220 224 226 225 226 227 228 230 230 229
346 254 247 250 277 273 268 259 258 261 264 255 253 265 258 267 272 279 283 286 282 285 285 276 252 238 227 222 219 217 216 216 216 218 224 224 225 227 228 230 230 230 233 234
299 278 221 252 257 274 270 247 250 257 238 254 249 337 328 290 285 278 275 277 279 284 285 277 261 253 252 238 235 226 224 217 216 220 222 222 221 225 227 228 229 231 231 233
247 224 258 240 217 242 286 317 275 227 279 281 296 328 321 312 306 289 280 291 292 298 293 292 288 276 265 257 244 239 223 226 223 218 222 221 220 222 222 222 226 227 230 233
218 225 215 231 223 270 273 271 231 220 273 15 346 312 315 331 310 81 358 328 305 303 300 291 286 289 284 254 246 236 226 223 224 228 220 220 220 217 216 220 221 222 225 229
202 215 219 185 236 234 51 90 21 297 217 27 358 0 345 331 329 5 345 352 357 342 319 305 284 279 276 275 257 239 228 223 224 228 224 216 217 218 215 214 213 220 228 238
187 203 218 225 245 266 295 305 242 247 32 346 335 325 326 317 316 311 317 319 326 334 348 327 304 290 278 275 271 251 232 227 225 218 216 214 211 213 218 222 224 224 227 228
181 189 192 226 242 259 358 209 249 1 335 335 327 325 319 310 304 311 309 318 320 323 331 352 333 312 300 283 266 254 239 227 214 211 213 214 215 216 221 227 217 211 218 223
230 217 215 205 216 102 109 358 28 13 341 336 324 326 324 311 308 308 304 314 320 322 326 344 353 338 322 315 267 255 240 239 223 214 208 204 206 206 199 207 220 214 215 219
235 225 241 242 239 260 9 30 358 360 348 341 337 334 342 329 319 315 319 337 345 336 339 348 355 358 354 354 336 279 237 223 222 211 200 190 187 189 181 185 203 217 221 218
277 151 245 261 263 303 275 20 345 342 347 345 348 353 348 342 337 338 333 338 336 339 343 354 7 9 7 0 338 264 193 198 194 183 178 180 181 180 178 186 195 202 212 212
246 293 264 280 28 321 300 337 344 342 345 346 344 347 354 348 348 348 346 357 354 350 330 330 10 69 64 13 332 233 202 205 199 187 176 176 176 174 173 174 176 172 183 169